Regional Weather Roundup
Issued by NWS Wakefield, VA

Home | Current Version | Previous Version | Graphics & Text | Print | Product List | Glossary On
Versions: 1 2 3 4 5 6 7 8 9 10 11 12 13 14 15 16 17 18 19 20 21 22 23 24 25 26 27
000
ASUS41 KAKQ 230215
RWRAKQ

REGIONAL WEATHER ROUNDUP
NATIONAL WEATHER SERVICE WAKEFIELD VA
900 PM EST SUN JAN 22 2017

Note: "fair" indicates few or no clouds below 12,000 feet with no
significant weather and/or obstructions to visibility. * = Denotes
station may not report precipitation (e.g., rain,snow,etc.),
thunder or fog.

VAZ042-051-052>054-056-230300-
NORTHERN VIRGINIA

CITY           SKY/WX    TMP DP  RH WIND       PRES   REMARKS
WASH NATIONAL  LGT RAIN  50  50 100 NE10      29.62F FOG
DULLES         CLOUDY    50  48  93 NE7       29.62F
FORT BELVOIR   DRIZZLE   50  49  94 VRB3      29.61F
QUANTICO       LGT RAIN  50  50 100 NE9       29.61F VSB 1
FREDERICKSBRG* DRIZZLE   50  50 100 NE5       29.60S
STAFFORD*      DRIZZLE   49  49 100 E7        29.64F
WARRENTON      DRIZZLE   50  47  90 NE6       29.60F
CULPEPER*      RAIN      50  49  99 CALM      29.61S
MANASSAS*      CLOUDY   N/A N/A N/A CALM      29.62F FOG
LEESBURG*      RAIN      48  48 100 NE8       29.63F
WINCHESTER     DRIZZLE   43  43 100 N3        29.62S
FRONT ROYAL*   CLOUDY    45  45 100 N3        29.61S
LURAY*         CLOUDY    46  46 100 NE9       29.59F FOG
$$

VAZ048-049-060>072-079>083-230300-
CENTRAL AND SOUTH CENTRAL VIRGINIA

CITY           SKY/WX    TMP DP  RH WIND       PRES   REMARKS
RICHMOND       CLOUDY    49  49 100 NE7       29.57F FOG
CHESTERFIELD*  CLOUDY    50  36  57 NE6       29.57F
PETERSBURG*    CLOUDY    48  48 100 NE10      29.55F
HANOVER        CLOUDY    49  47  93 VRB3      29.60F FOG
TAPPAHANNOCK*  DRIZZLE   49  49 100 CALM      29.59F
QUINTON*       CLOUDY    48  48 100 E3        29.58F FOG
CHARLOTTSVILLE LGT RAIN  51  49  92 NE8       29.58F FOG
GORDONSVILLE*  CLOUDY    49  49 100 NE5       29.60S FOG
ORANGE*        DRIZZLE   50  50 100 CALM      29.62S
LOUISA*        DRIZZLE   52  52 100 NE5       29.58F
BUMPASS*       CLOUDY    48  48 100 CALM      29.60R
FARMVILLE*     CLOUDY    51  51 100 NE10      29.53F
CREWE*         CLOUDY    49  49 100 E5        29.53F
FORT PICKETT*  CLOUDY    49  46  87 NE12      29.53F
CHASE CITY*    CLOUDY    50  49  95 NE8       29.51F
CLARKSVILLE*   CLOUDY    50  50 100 E5        29.53R
SOUTH HILL*    CLOUDY    50  50 100 NE3       29.57F
LAWRENCEVILLE* CLOUDY    50  49  97 NE5       29.52F
EMPORIA*       CLOUDY    50  50 100 N8        29.54F
$$

VAZ088>098-230300-
SOUTHEAST VIRGINIA

CITY           SKY/WX    TMP DP  RH WIND       PRES   REMARKS
NORFOLK        CLOUDY    48  46  93 N10       29.56S FOG
VIRGINIA BEACH CLOUDY    46  45  96 N8        29.55F FOG
NORFOLK NAVAL  DRIZZLE   50  48  93 N10       29.58F FOG
WEST POINT*    CLOUDY    48  48  99 CALM      29.60S
SALUDA*        CLOUDY    47  47 100 CALM      29.58F
NEWPORT NEWS   CLOUDY    50  48  93 NE6       29.57F FOG
LANGLEY AFB    CLOUDY    49  49 100 N8        29.57R FOG
FORT EUSTIS    CLOUDY    50  48  93 CALM      29.54F
WILLIAMSBURG*  CLOUDY    52  52 100 CALM      29.58F
HR EXEC AP*    CLOUDY    50  46  87 NE7       29.55F
FRANKLIN*      CLOUDY    50  49  97 NE8       29.54F
US460-WAKEFLD  CLOUDY    50  49  96 NE5       29.54F FOG
$$

VAZ020-022-025-037-045-230300-
WEST CENTRAL AND SOUTHWEST VIRGINIA

CITY           SKY/WX    TMP DP  RH WIND       PRES   REMARKS
STAUNTON*      RAIN      46  46  99 NE6       29.59F
WAYNESBORO*    CLOUDY    46  45  96 N5        29.56F
HOT SPRINGS VA SNOW      43  43 100 E13G20    29.49F VSB<1/4
LYNCHBURG      CLOUDY    49  48  97 NE13      29.53F FOG
DANVILLE       LGT RAIN  51  51 100 E8        29.51S FOG
SOUTH BOSTON*  CLOUDY    51  50  96 E5        29.54R
MARTINSVILLE   LGT RAIN  50  49  97 E6        29.53R
ROANOKE        CLOUDY    52  50  93 E7        29.50F
BLACKSBURG     CLOUDY    49  49  98 E18G24    29.49F
DUBLIN*        DRIZZLE   50  50 100 E9        29.48R
MARION*        LGT RAIN  51  50  95 E12G17    29.47S
HILLSVILLE*    DRIZZLE   47  47 100 E5        29.47R
RICHLANDS*     DRIZZLE   51  48  90 SE8       29.39F
WISE*          LGT RAIN  54  50  87 E3        29.35F
ABINGDON*      LGT RAIN  54  51  90 E16       29.35F
$$

MDZ021>025-VAZ099-100-230300-
SOUTHERN MARYLAND AND THE DELMARVA PENINSULA

CITY           SKY/WX    TMP DP  RH WIND       PRES   REMARKS
PATUXENT RIVER CLOUDY    48  48 100 N9        29.59F FOG
BAY BRIDGE APT CLOUDY    48  48 100 NE8       29.63S FOG
LEONARDTOWN    CLOUDY    46  46 100 CALM      29.62S
DOVER          CLOUDY    48  48 100 N10       29.64S
GEORGETOWN     CLOUDY    49  48  97 NE15      29.62S FOG
EASTON         CLOUDY    50  48  93 E10G17    29.66S FOG
CAMBRIDGE      CLOUDY    50  50 100 NE7G17    29.59F
SALISBURY      CLOUDY    49  49 100 NE13      29.59S FOG
OCEAN CITY     CLOUDY    48  48 100 NE13      29.59F FOG
WALLOPS ISLAND LGT RAIN  51  51 100 NE18G26   29.57F FOG
ACCOMACK*      CLOUDY    53  52  97 NE15      29.56F FOG
$$

NCZ012>017-030>032-230300-
NORTH CENTRAL AND EASTERN NORTH CAROLINA

CITY           SKY/WX    TMP DP  RH WIND       PRES   REMARKS
ROANOKE RAPIDS CLOUDY    50  50 100 NE7       29.54R FOG
RALEIGH        LGT RAIN  54  53  97 E8        29.50R FOG
ELIZABETH CITY CLOUDY    51  49  92 NE9       29.53F
AHOSKIE*         N/A     50  50  99 NE3       29.55R FOG
EDENTON*       CLOUDY    54  53  97 NE5       29.53F FOG
CURRITUCK*     CLOUDY    50  50 100 N9        29.54F
KILL DEVIL HLS NOT AVBL
MANTEO         CLOUDY    49  49 100 NE10      29.54F
CAPE HATTERAS  FOG       52  51  97 E5        29.53F VSB 1/2
TARBORO*       NOT AVBL
GOLDSBORO      LGT RAIN  57  57 100 E3        29.49S
WASHINGTON     CLOUDY    55  55  97 NE8         N/A  FOG
GREENVILLE     CLOUDY    55  55 100 NE6       29.54F FOG
NEW BERN       CLOUDY    58  56  93 NE7       29.49F
WILMINGTON     CLOUDY    58  58 100 NE8       29.47R
$$

VAZ048-230300-
ELSEWHERE

CITY           SKY/WX    TMP DP  RH WIND       PRES   REMARKS
HARRISBURG PA  LGT RAIN  47  47 100 CALM      29.67R FOG
BALTIMORE      LGT RAIN  49  49 100 E13       29.64S FOG
ANNAPOLIS      CLOUDY    50  48  93 NE7       29.62S FOG
ANDREWS AFB    DRIZZLE   48  48 100 NE8       29.61S FOG
PHILADELPHIA   CLOUDY    48  46  93 E14       29.70R FOG
HENDERSON NC   LGT RAIN  49  49  98 NE8       29.53R
GREENSBORO     LGT RAIN  52  52 100 E12       29.46F
ROCKY MOUNT    CLOUDY    53  53 100 NE9       29.52R FOG
$$

VAZ100-230300-
MARINE

STATION/POSITION TIME  TEMP    WIND        PRES    WAVE   SWELL
                       AIR SEA DIR/SP/G            HT/PER HT/PER
                 (UTC) (F)     (DEG/KT/KT) (MB)    (FT/S) (FT/S)
CAPE MAY NJ      0130      42   60/  8/ 16 1002.5F
LEWES DE         0130      43   50/ 16/ 19 1002.5F
OCEAN-CITY-INLET 0130      43   40/ 11/ 16 1002.1F
WACHAPREAGUE VA  0130      50   30/ 15/ 18 1000.9F
THOMAS POINT MD  0100   45 40   20/ 12/ 13   N/A
GOOSES REEF MD   0150   42     330/  8/ 10 1003.6S
COVE POINT MD    0130          350/ 12/ 13 1003.2S
SOLOMONS ISLAND  0130      42  330/  4/  5   N/A
BISHOPS HEAD MD  0130      46   30/  8/ 10 1002.3R
PINEY POINT MD   0130           50/  4/  5   N/A
POTOMAC MD       0150   47      30/  8/ 10 1001.1F
CAMBRIDGE MD     0130      40   60/ 12/ 15 1001.6F
LEWISETTA VA     0130      44   30/  4/  5 1002.0S
RAPPAHANNOCK LGT 0130          360/  9/ 10 1001.7F
STINGRAY PT      0150   43      20/  8/ 10 1001.8F
YORK RVR RNG VA  0130           10/ 10/ 11 1000.5F
YORKTOWN VA      0130      43  340/  3/  4 1001.2F
JAMESTOWN VA     0150   48      CALM  /  2   N/A
DOMINION TERM VA 0130           30/  2/  4 1001.6R
CHES BAY BRIDGE  0130      44  360/ 10/ 11 1001.3F
CAPE HENRY VA    0130          340/  7/  8   N/A
WILLOUBY STN VA  0130          360/  6/  7 1002.4R
S CRANEY ISL VA  0130          350/  5/  5 1001.3F
CAPE HENRY BUOY  0142      47                N/A     4/ 7   2/12
OFFSHORE WE BUOY 0151      48                N/A     4/11   2/11
64NM E OF VA BCH 0050   50 56  280/ 14/ 17 1000.9    5/13   3/13
DUCK PIER NC     0130      47   10/  6/  7 1000.1F
44100 DUCK FRF   0135      48                N/A     4/13   2/13
44056 DUCK FRF   0130      46                N/A     3/13   2/13
OREGON INLET NC  0130      51   10/  8/ 12 1000.3F
HATTERAS NC      0130      55   20/  8/ 12  999.8F
CAPE LOOKOUT NC  0100   61      40/  9/ 10  999.7F
$$




USA.gov is the U.S. government's official web portal to all federal, state and local government web resources and services.